Rantoul, IL

1:01 AM CDT on July 22, 2017 (GMT -0500)
Rantoul

Weather History for KTIP - November, 2012

Change the Weather History Date:

Friday, November 30, 2012

  Actual Average (KCMI) Record (KCMI)
Temperature  
Mean Temperature 46 °F -  
Max Temperature 59 °F 43 °F 65 °F (2014)
Min Temperature 32 °F 28 °F 18 °F (2002)
Degree Days  
Heating Degree Days 20    
Moisture  
Dew Point 34 °F    
Average Humidity 70    
Maximum Humidity 91    
Minimum Humidity 43    
Precipitation  
Precipitation 0.00 in - - ()
Sea Level Pressure  
Sea Level Pressure 30.11 in    
Wind  
Wind Speed 6 mph (South)    
Max Wind Speed 18 mph    
Max Gust Speed 23 mph    
Visibility 10 miles    
Events      
Averages and records for this station are not official NWS values.
T = Trace of Precipitation, MM = Missing Value Source: NWS Daily Summary

Daily Weather History Graph

Daily Weather History Graph

Search for Another Location

Airport or City:

Trip Planner

Search our weather history database for the weather conditions in past years. The results will help you decide how hot, cold, wet, or windy it might be!

Date:

Astronomy

Nov. 30, 2012 Rise Set
Actual Time 6:55 AM CST 4:27 PM CST
Civil Twilight 6:25 AM CST 4:57 PM CST
Nautical Twilight 5:51 AM CST 5:31 PM CST
Astronomical Twilight 5:18 AM CST 6:03 PM CST
Moon 6:21 PM CST (11/30) 8:27 AM CST (11/30)
Length of Visible Light 10h 31m
Length of Day
9h 31m
Waning Gibbous, 96% of the Moon is Illuminated
Nov 30
Waning Gibbous
Dec 6
Last Quarter
Dec 13
New
Dec 19
First Quarter
Dec 28
Full

Hourly Weather History & Observations

Time (CST) Temp. Windchill Dew Point Humidity Pressure Visibility Wind Dir Wind Speed Gust Speed Precip Events Conditions
12:15 AM 38.3 °F 33.2 °F 32.0 °F 78% 30.12 in 10.0 mi SSE 6.9 mph - N/A   Clear
12:35 AM 37.4 °F 32.1 °F 31.8 °F 80% 30.12 in 10.0 mi SSE 6.9 mph - N/A   Clear
12:55 AM 38.3 °F 33.9 °F 31.6 °F 77% 30.12 in 10.0 mi SSE 5.8 mph - N/A   Clear
1:15 AM 37.4 °F 33.8 °F 31.5 °F 79% 30.12 in 10.0 mi SSE 4.6 mph - N/A   Clear
1:35 AM 36.3 °F 32.5 °F 30.9 °F 81% 30.12 in 10.0 mi SE 4.6 mph - N/A   Clear
1:55 AM 36.5 °F 32.7 °F 31.1 °F 81% 30.12 in 10.0 mi SSE 4.6 mph - N/A   Clear
2:15 AM 36.3 °F 31.6 °F 30.7 °F 80% 30.12 in 10.0 mi SSE 5.8 mph - N/A   Clear
2:35 AM 35.6 °F 31.7 °F 30.7 °F 82% 30.12 in 10.0 mi SSE 4.6 mph - N/A   Clear
2:55 AM 35.1 °F 31.0 °F 30.6 °F 84% 30.12 in 10.0 mi SE 4.6 mph - N/A   Clear
3:15 AM 35.1 °F 30.1 °F 30.4 °F 83% 30.11 in 10.0 mi SSE 5.8 mph - N/A   Clear
3:35 AM 33.6 °F 29.4 °F 30.0 °F 87% 30.11 in 10.0 mi SSE 4.6 mph - N/A   Clear
3:55 AM 33.8 °F 27.7 °F 30.2 °F 87% 30.10 in 10.0 mi SSE 6.9 mph - N/A   Clear
4:15 AM 33.8 °F 27.0 °F 30.2 °F 87% 30.09 in 10.0 mi SSE 8.1 mph - N/A   Clear
4:35 AM 33.1 °F 28.7 °F 30.0 °F 89% 30.09 in 10.0 mi SSE 4.6 mph - N/A   Clear
4:55 AM 33.6 °F 29.4 °F 30.2 °F 87% 30.09 in 10.0 mi SSE 4.6 mph - N/A   Clear
5:15 AM 33.3 °F 30.2 °F 30.0 °F 88% 30.10 in 10.0 mi SSE 3.5 mph - N/A   Clear
5:35 AM 32.4 °F - 29.8 °F 90% 30.10 in 10.0 mi Calm Calm - N/A   Clear
5:55 AM 35.8 °F 31.9 °F 31.1 °F 83% 30.10 in 10.0 mi South 4.6 mph - N/A   Clear
6:15 AM 38.5 °F 36.1 °F 31.5 °F 76% 30.10 in 10.0 mi SSE 3.5 mph - N/A   Clear
6:35 AM 38.1 °F 34.6 °F 31.1 °F 76% 30.10 in 10.0 mi SSE 4.6 mph - N/A   Clear
6:55 AM 38.1 °F 32.3 °F 32.0 °F 79% 30.09 in 10.0 mi South 8.1 mph - N/A   Clear
7:15 AM 38.7 °F 33.6 °F 32.0 °F 77% 30.09 in 10.0 mi South 6.9 mph - N/A   Clear
7:35 AM 38.7 °F 32.9 °F 32.0 °F 77% 30.09 in 10.0 mi South 8.1 mph - N/A   Clear
7:55 AM 41.0 °F 35.8 °F 32.7 °F 72% 30.10 in 10.0 mi South 8.1 mph - N/A   Clear
8:15 AM 43.7 °F 39.1 °F 33.3 °F 67% 30.10 in 10.0 mi SSW 8.1 mph - N/A   Clear
8:35 AM 45.3 °F 40.6 °F 33.4 °F 63% 30.11 in 10.0 mi SSW 9.2 mph - N/A   Clear
9:15 AM 49.1 °F - 33.6 °F 55% 30.11 in 10.0 mi SW 18.4 mph 23.0 mph N/A   Clear
9:35 AM 49.6 °F - 34.3 °F 56% 30.11 in 10.0 mi SW 15.0 mph - N/A   Clear
9:55 AM 50.9 °F - 35.1 °F 55% 30.11 in 10.0 mi SW 13.8 mph 20.7 mph N/A   Clear
10:15 AM 52.9 °F - 35.2 °F 51% 30.11 in 10.0 mi SW 17.3 mph 20.7 mph N/A   Clear
10:35 AM 54.3 °F - 35.6 °F 49% 30.11 in 10.0 mi SW 18.4 mph - N/A   Clear
10:55 AM 55.0 °F - 35.6 °F 48% 30.11 in 10.0 mi SW 15.0 mph 19.6 mph N/A   Clear
11:15 AM 55.4 °F - 36.7 °F 49% 30.09 in 7.0 mi SW 12.7 mph 18.4 mph N/A   Clear
11:35 AM 56.3 °F - 37.0 °F 48% 30.09 in 10.0 mi WSW 10.4 mph 17.3 mph N/A   Clear
11:55 AM 57.0 °F - 36.7 °F 47% 30.08 in 10.0 mi SW 10.4 mph - N/A   Clear
12:15 PM 57.4 °F - 36.3 °F 45% 30.07 in 10.0 mi SW 10.4 mph - N/A   Clear
12:35 PM 57.9 °F - 36.9 °F 45% 30.07 in 10.0 mi SW 11.5 mph - N/A   Clear
12:55 PM 58.3 °F - 37.0 °F 45% 30.07 in 10.0 mi SW 9.2 mph - N/A   Clear
1:15 PM 58.5 °F - 36.5 °F 44% 30.07 in 10.0 mi SW 8.1 mph - N/A   Clear
1:35 PM 59.2 °F - 37.0 °F 44% 30.06 in 10.0 mi SW 8.1 mph - N/A   Clear
1:55 PM 59.4 °F - 36.9 °F 43% 30.07 in 10.0 mi SSW 9.2 mph - N/A   Clear
2:15 PM 59.4 °F - 37.0 °F 43% 30.07 in 10.0 mi SW 8.1 mph - N/A   Clear
2:35 PM 59.5 °F - 37.4 °F 44% 30.07 in 10.0 mi SSW 6.9 mph - N/A   Clear
2:55 PM 59.2 °F - 37.4 °F 44% 30.08 in 10.0 mi SW 11.5 mph - N/A   Clear
3:15 PM 59.0 °F - 37.6 °F 45% 30.08 in 10.0 mi SW 6.9 mph - N/A   Clear
3:35 PM 58.8 °F - 38.1 °F 46% 30.08 in 10.0 mi SSW 5.8 mph - N/A   Clear
3:55 PM 57.4 °F - 38.3 °F 49% 30.08 in 10.0 mi SSW 5.8 mph - N/A   Clear
4:15 PM 54.1 °F - 37.9 °F 54% 30.09 in 10.0 mi SW 5.8 mph - N/A   Clear
4:35 PM 52.7 °F - 37.4 °F 56% 30.10 in 10.0 mi SW 3.5 mph - N/A   Clear
4:55 PM 50.7 °F - 37.6 °F 61% 30.11 in 10.0 mi SSW 3.5 mph - N/A   Clear
5:15 PM 50.2 °F - 37.4 °F 62% 30.12 in 10.0 mi SSW 3.5 mph - N/A   Clear
5:35 PM 49.8 °F - 37.2 °F 62% 30.12 in 10.0 mi SSW 3.5 mph - N/A   Clear
5:55 PM 46.4 °F - 37.4 °F 71% 30.13 in 10.0 mi Calm Calm - N/A   Clear
6:15 PM 46.9 °F - 37.0 °F 68% 30.13 in 10.0 mi SSE 3.5 mph - N/A   Clear
6:35 PM 43.9 °F - 36.3 °F 75% 30.13 in 10.0 mi Calm Calm - N/A   Clear
6:55 PM 44.6 °F 42.2 °F 37.4 °F 76% 30.14 in 10.0 mi South 4.6 mph - N/A   Clear
7:15 PM 44.6 °F 43.1 °F 36.9 °F 74% 30.13 in 10.0 mi SSE 3.5 mph - N/A   Clear
7:35 PM 42.3 °F 40.5 °F 36.3 °F 79% 30.13 in 10.0 mi SE 3.5 mph - N/A   Clear
7:55 PM 40.5 °F 37.3 °F 35.6 °F 83% 30.13 in 10.0 mi SE 4.6 mph - N/A   Clear
8:15 PM 41.2 °F - 36.0 °F 82% 30.13 in 10.0 mi Calm Calm - N/A   Clear
8:35 PM 41.0 °F - 36.1 °F 83% 30.13 in 10.0 mi Calm Calm - N/A   Clear
8:55 PM 40.3 °F - 35.6 °F 83% 30.13 in 10.0 mi Calm Calm - N/A   Clear
9:15 PM 40.6 °F 36.7 °F 35.6 °F 82% 30.13 in 10.0 mi ESE 5.8 mph - N/A   Clear
9:35 PM 39.2 °F 37.0 °F 35.1 °F 85% 30.12 in 10.0 mi SE 3.5 mph - N/A   Clear
9:55 PM 39.9 °F 36.7 °F 35.8 °F 85% 30.13 in 10.0 mi SE 4.6 mph - N/A   Clear
10:15 PM 39.6 °F 36.3 °F 35.6 °F 86% 30.12 in 10.0 mi SE 4.6 mph - N/A   Clear
10:35 PM 38.3 °F 35.9 °F 34.7 °F 87% 30.13 in 10.0 mi SE 3.5 mph - N/A   Clear
10:55 PM 37.9 °F - 34.5 °F 87% 30.13 in 10.0 mi Calm Calm - N/A   Clear
11:15 PM 37.6 °F 34.0 °F 34.5 °F 89% 30.13 in 10.0 mi SE 4.6 mph - N/A   Clear
11:35 PM 37.0 °F 34.5 °F 34.2 °F 89% 30.14 in 10.0 mi ESE 3.5 mph - N/A   Clear
11:55 PM 38.1 °F 34.6 °F 35.6 °F 91% 30.13 in 10.0 mi SE 4.6 mph - N/A   Clear